FW4685 Weather Reports


time (UTC)temp
F
wind
direction
speed
knots
gust
knots
rain 1hr
in
rain 24hr
in
rain mn
in
humidity
%
barometer
mb
20260507065106 46 325 0.0 0.0 0.00 0.00 0.00 91 1018.2
20260507064018 44 52 0.0 0.0 0.00 0.00 0.00 94 1018.0
20260507063030 43 105 0.0 0.0 0.00 0.00 0.00 96 1018.2
20260507062025 43 77 0.0 0.0 0.00 0.00 0.00 97 1018.0
20260507061018 42 326 0.0 0.0 0.00 0.00 0.00 98 1018.0
20260507060019 41 357 0.0 0.0 0.00 0.00 0.00 98 1017.8
20260507055030 40 357 0.0 0.0 0.00 0.00 0.00 98 1017.9
20260507054046 40 330 0.0 0.0 0.00 0.00 0.00 98 1017.7
20260507053018 39 14 0.0 0.0 0.00 0.00 0.00 99 1017.6
20260507052051 39 354 0.0 0.0 0.00 0.00 0.00 98 1017.6
20260507051026 38 351 0.0 0.0 0.00 0.00 0.00 98 1017.7
20260507050018 38 6 0.0 0.0 0.00 0.00 0.00 98 1017.6
20260507045106 39 48 0.0 0.0 0.00 0.00 0.00 98 1017.5
20260507044018 39 53 0.0 0.0 0.00 0.00 0.00 98 1017.5
20260507043111 39 10 0.0 0.0 0.00 0.00 0.00 97 1017.5
20260507042026 40 32 0.0 0.0 0.00 0.00 0.00 97 1017.5
20260507041046 40 8 0.0 0.0 0.00 0.00 0.00 97 1017.5
20260507040019 40 53 0.0 0.0 0.00 0.00 0.00 97 1017.5
20260507035050 41 348 0.0 0.0 0.00 0.00 0.00 96 1017.4
20260507034031 41 353 0.0 0.0 0.00 0.00 0.00 96 1017.4
20260507033022 41 353 0.0 0.0 0.00 0.00 0.00 95 1017.3
20260507032030 42 21 0.0 0.0 0.00 0.00 0.00 95 1017.3
20260507031027 42 15 0.0 0.0 0.00 0.00 0.00 94 1017.2
20260507030022 42 17 0.0 0.0 0.00 0.00 0.00 94 1017.3
20260507025018 42 359 0.0 0.0 0.00 0.00 0.00 94 1017.2
20260507024030 42 17 0.0 0.0 0.00 0.00 0.00 94 1017.3
20260507023026 42 13 0.0 0.0 0.00 0.00 0.00 93 1017.4
20260507022019 43 1 0.0 0.0 0.00 0.00 0.00 93 1017.3
20260507021018 43 354 0.0 0.0 0.00 0.00 0.00 92 1017.1
20260507020030 44 17 0.0 0.0 0.00 0.00 0.00 92 1017.0
20260507015025 44 15 0.0 0.0 0.00 0.00 0.00 91 1017.1
20260507014022 45 1 0.0 0.0 0.00 0.00 0.00 91 1017.1
20260507013021 45 359 0.0 0.0 0.00 0.00 0.00 90 1017.1
20260507012031 46 15 0.0 0.0 0.00 0.00 0.00 89 1017.1
20260507011025 46 10 0.0 0.0 0.00 0.00 0.00 89 1017.1
20260507010022 46 23 0.0 0.0 0.00 0.00 0.00 88 1017.0
20260507005021 46 11 0.0 4.3 0.00 0.00 0.00 88 1017.0
20260507004033 46 9 0.0 0.0 0.00 0.00 0.00 87 1017.1
20260507003025 46 9 0.0 0.0 0.00 0.00 0.00 87 1017.1
20260507002022 46 5 0.0 0.0 0.00 0.00 0.00 87 1017.2
20260507001025 47 12 0.0 0.0 0.00 0.00 0.00 86 1017.1
20260507000018 47 358 0.0 0.0 0.00 0.00 0.00 85 1017.2
20260506235018 48 22 0.0 0.0 0.00 0.00 0.00 84 1017.0
20260506234033 48 19 0.0 0.0 0.00 0.00 0.00 83 1016.9
20260506233031 49 20 0.0 0.0 0.00 0.00 0.00 82 1016.9
20260506232026 49 32 0.0 0.0 0.00 0.00 0.00 81 1016.9
20260506231019 49 35 0.9 4.3 0.00 0.00 0.00 80 1016.9
20260506230029 50 30 0.0 0.0 0.00 0.00 0.00 80 1016.8
20260506225026 50 31 0.0 0.0 0.00 0.00 0.00 79 1016.9
20260506224025 50 29 0.0 0.0 0.00 0.00 0.00 78 1016.9
20260506223018 51 49 0.0 4.3 0.00 0.00 0.00 76 1016.9
20260506222029 51 28 0.0 4.3 0.00 0.00 0.00 75 1016.8
20260506221026 51 25 0.9 4.3 0.00 0.00 0.00 74 1016.7
20260506220045 51 26 1.7 6.1 0.00 0.00 0.00 74 1016.7
20260506215018 51 18 0.9 4.3 0.00 0.00 0.00 74 1016.7
20260506214030 52 26 0.9 4.3 0.00 0.00 0.00 73 1016.7
20260506213025 52 23 0.9 4.3 0.00 0.00 0.00 73 1016.7
20260506212022 52 25 0.9 4.3 0.00 0.00 0.00 73 1016.7
20260506211019 52 17 0.9 4.3 0.00 0.00 0.00 72 1016.6
20260506210030 53 20 1.7 6.1 0.00 0.00 0.00 72 1016.5
20260506205025 53 28 0.9 8.7 0.00 0.00 0.00 71 1016.4
20260506204018 53 30 0.9 6.1 0.00 0.00 0.00 69 1016.3
20260506203029 53 33 0.9 4.3 0.00 0.00 0.00 67 1016.3
20260506202026 53 36 1.7 6.1 0.00 0.00 0.00 66 1016.2
20260506201033 54 11 0.0 4.3 0.00 0.00 0.00 66 1016.2
20260506200018 54 23 1.7 8.7 0.00 0.00 0.00 65 1016.0
20260506195029 54 26 1.7 6.1 0.00 0.00 0.00 64 1015.9
20260506194046 54 32 2.6 8.7 0.00 0.00 0.00 63 1015.7
20260506193019 54 16 0.9 6.1 0.00 0.00 0.00 64 1015.8
20260506192029 54 23 1.7 8.7 0.00 0.00 0.00 63 1015.7
20260506191025 54 36 1.7 6.1 0.00 0.00 0.00 61 1015.5
20260506190025 55 29 0.9 4.3 0.00 0.00 0.00 61 1015.5
20260506185018 55 26 1.7 4.3 0.00 0.00 0.00 60 1015.4
20260506184029 55 25 1.7 6.1 0.00 0.00 0.00 60 1015.3
20260506183018 55 29 1.7 6.1 0.00 0.00 0.00 60 1015.3
20260506182029 55 25 2.6 8.7 0.00 0.00 0.00 60 1015.2
20260506181029 55 29 1.7 6.1 0.00 0.00 0.00 61 1015.1
20260506180025 55 30 1.7 6.1 0.00 0.00 0.00 61 1015.0
20260506175025 56 23 1.7 6.1 0.00 0.00 0.00 60 1014.9
20260506174038 56 27 1.7 6.1 0.00 0.00 0.00 60 1014.8
20260506173029 56 22 1.7 4.3 0.00 0.00 0.00 59 1014.7
20260506172026 56 27 1.7 6.1 0.00 0.00 0.00 59 1014.7
20260506171025 56 347 0.9 4.3 0.00 0.00 0.00 60 1014.8
20260506170027 56 31 1.7 6.1 0.00 0.00 0.00 60 1014.7
20260506165044 56 39 0.9 8.7 0.00 0.00 0.00 59 1014.6
20260506164043 56 27 1.7 6.1 0.00 0.00 0.00 58 1014.7
20260506163019 56 31 0.9 6.1 0.00 0.00 0.00 59 1014.7
20260506162033 56 32 2.6 8.7 0.00 0.00 0.00 59 1014.7
20260506161052 56 29 1.7 6.1 0.00 0.00 0.00 59 1014.7
20260506160047 55 16 1.7 6.1 0.00 0.00 0.00 60 1014.8
20260506155044 55 11 0.0 4.3 0.00 0.00 0.00 61 1014.9
20260506154033 55 18 1.7 6.1 0.00 0.00 0.00 61 1014.9
20260506153027 55 17 0.9 6.1 0.00 0.00 0.00 62 1014.9
20260506152022 56 3 1.7 6.1 0.00 0.00 0.00 62 1015.0
20260506151052 58 28 1.7 6.1 0.00 0.00 0.00 62 1014.9
20260506150028 59 21 2.6 8.7 0.00 0.00 0.00 62 1014.9
20260506145027 59 29 4.3 13.0 0.00 0.00 0.00 56 1014.9
20260506144022 58 16 0.9 8.7 0.00 0.00 0.00 53 1014.7
20260506143031 57 16 2.6 6.1 0.00 0.00 0.00 57 1014.8
20260506142027 58 19 1.7 8.7 0.00 0.00 0.00 59 1014.9
20260506141027 58 26 2.6 13.0 0.00 0.00 0.00 57 1014.9
20260506140023 58 32 3.5 13.0 0.00 0.00 0.00 58 1014.9
20260506135111 58 24 2.6 10.4 0.00 0.00 0.00 59 1015.0
20260506134027 58 16 1.7 8.7 0.00 0.00 0.00 58 1014.9
20260506133046 58 16 2.6 8.7 0.00 0.00 0.00 59 1014.9
20260506132033 59 22 3.5 14.8 0.00 0.00 0.00 56 1014.9
20260506131027 59 14 1.7 6.1 0.00 0.00 0.00 57 1015.0
20260506130023 59 11 2.6 10.4 0.00 0.00 0.00 55 1014.8
20260506125023 59 29 2.6 10.4 0.00 0.00 0.00 54 1014.9
20260506124032 58 10 2.6 10.4 0.00 0.00 0.00 56 1015.0
20260506123026 58 10 3.5 10.4 0.00 0.00 0.00 55 1014.9
20260506122027 58 32 3.5 10.4 0.00 0.00 0.00 56 1014.9
20260506121024 58 16 3.5 13.0 0.00 0.00 0.00 56 1015.0
20260506120019 58 20 1.7 8.7 0.00 0.00 0.00 56 1015.0
20260506115032 57 1 1.7 14.8 0.00 0.00 0.00 56 1015.1
20260506114027 58 20 2.6 8.7 0.00 0.00 0.00 57 1015.0
20260506113024 57 17 2.6 13.0 0.00 0.00 0.00 55 1015.0
20260506112052 57 27 2.6 10.4 0.00 0.00 0.00 56 1015.2
20260506111027 57 7 2.6 8.7 0.00 0.00 0.00 55 1015.1
20260506110022 57 354 2.6 8.7 0.00 0.00 0.00 55 1015.1
20260506105031 57 18 2.6 8.7 0.00 0.00 0.00 56 1015.1
20260506104107 57 28 3.5 10.4 0.00 0.00 0.00 57 1015.1
20260506103024 56 35 2.6 8.7 0.00 0.00 0.00 56 1015.1
20260506102034 57 24 1.7 8.7 0.00 0.00 0.00 56 1015.1
20260506101031 56 26 2.6 8.7 0.00 0.00 0.00 58 1015.1
20260506100026 56 19 2.6 10.4 0.00 0.00 0.00 55 1015.1
20260506095022 55 26 1.7 8.7 0.00 0.00 0.00 58 1015.0
20260506094031 54 25 1.7 10.4 0.00 0.00 0.00 62 1015.1
20260506093026 54 354 1.7 6.1 0.00 0.00 0.00 64 1015.2
20260506092025 54 51 0.9 6.1 0.00 0.00 0.00 66 1015.2
20260506091637 52 58 1.7 4.3 0.00 0.00 0.00 66 1015.1
20260506072022 49 30 2.6 6.1 0.00 0.00 0.00 75 1015.2
20260506071025 49 27 1.7 4.3 0.00 0.00 0.00 76 1015.2